Regional Weather Roundup
Issued by NWS

Home | Current Version | Previous Version | Graphics & Text | Print | Product List | Glossary Off
Versions: 1 2 3 4 5 6 7 8 9 10 11 12 13 14 15 16 17 18 19 20 21 22 23 24 25 26 27 28 29 30 31 32 33 34 35 36 37 38 39 40 41 42 43 44 45 46 47 48 49 50

000
ASUS43 KDTX 272201
RWRMI
MICHIGAN HOURLY REGIONAL WEATHER ROUNDUP
NATIONAL WEATHER SERVICE DETROIT/PONTIAC MI
500 PM EST THU NOV 27 2014

NOTE: "FAIR" INDICATES FEW OR NO CLOUDS BELOW 12,000 FEET WITH NO
SIGNIFICANT WEATHER AND/OR OBSTRUCTION TO VISIBILITY.

MIZ047>049-052>055-059>063-066>070-074>076-081>083-272300-
SOUTHEAST LOWER MICHIGAN

CITY           SKY/WX    TMP DP  RH WIND       PRES   REMARKS
ADRIAN         LGT SNOW  29  27  92 N6        30.22R FOG     WCI  23
ALMA           CLOUDY    26  19  77 NW9       30.25R WCI  16
ANN ARBOR      CLOUDY    30  20  66 NW9       30.19R WCI  22
BAD AXE        MOCLDY    25  19  75 NW7       30.19R WCI  18
CARO           CLOUDY    27  18  69 NW9       30.20S WCI  17
DETROIT CITY   CLOUDY    33  19  56 NW12      30.20R WCI  24
DETROIT        CLOUDY    31  21  66 NW12      30.20R WCI  22
FLINT          CLOUDY    29  19  66 N9        30.22R WCI  20
GROSSE ILE     CLOUDY    32  23  69 NW9       30.18R WCI  24
HILLSDALE      CLOUDY    30  24  79 NW13      30.19R WCI  20
HOWELL         FLURRIES  28  21  76 NW8G16    30.20R WCI  20

CITY           SKY/WX    TMP DP  RH WIND       PRES   REMARKS
JACKSON        CLOUDY    29  22  75 NW6       30.21R WCI  23
LAMBERTVILLE   CLOUDY    34  28  80 W8        30.20R WCI  27
LANSING        CLOUDY    28  18  66 N10       30.24R WCI  19
LAPEER         CLOUDY    27  19  71 N8        30.20R WCI  19
MASON          CLOUDY    28  21  72 N12       30.22R WCI  18
MONROE         LGT SNOW  30  28  93 CALM      30.18S
MT. CLEMENS    CLOUDY    32  25  74 NW10      30.17R WCI  24
PONTIAC        FLURRIES  28  21  75 NW14      30.18R WCI  17
PORT HOPE        N/A     27  17  66 NW13G20   30.17R WCI  16
PORT HURON     CLOUDY    28  21  74 NW10G18   30.19R WCI  19
TRI CITIES     CLOUDY    28  16  60 NW13      30.24R WCI  17
TROY           CLOUDY    32  21  62 W8        30.20R WCI  25
SAGINAW HB     CLOUDY    28  18  64 NW13      30.23R WCI  18
$$
MIZ043>046-050>051-056>058-064>065-071>073-077>080-272300-
SOUTHWEST LOWER MICHIGAN

CITY           SKY/WX    TMP DP  RH WIND       PRES   REMARKS
BATTLE CREEK   CLOUDY    28  20  71 NW16      30.25R WCI  16
BENTON HARBOR  LGT SNOW  27  21  78 MISG      30.31R
BIG RAPIDS     LGT SNOW  21  17  83 NW8       30.26R WCI  12
COLDWATER      CLOUDY    31  25  81 NW13      30.23R WCI  21
FREMONT        CLOUDY    22  15  75 NW13      30.30R WCI  10
HOLLAND        LGT SNOW  25  18  74 NW10      30.31R WCI  15
GRAND RAPIDS   CLOUDY    24  16  71 NW12      30.28R WCI  13
IONIA          FLURRIES  26  19  75 NW13G21   30.25R WCI  15
KALAMAZOO      CLOUDY    27  19  72 NW17      30.28R WCI  14
LUDINGTON      FLURRIES  21  12  70 NW9       30.32R WCI  10
MARSHALL       CLOUDY    28  21  74 NW8       30.23R WCI  20
MOUNT PLEASANT CLOUDY    25  15  66 NW8G17    30.24R WCI  17
MUSKEGON       LGT SNOW  23  15  71 N14       30.33R WCI  11
SOUTH HAVEN    CLOUDY    29  20  68 NW12      30.31R WCI  19
$$
MIZ016>042-272300-
NORTHERN LOWER MICHIGAN

CITY           SKY/WX    TMP DP  RH WIND       PRES   REMARKS
ALPENA         MOCLDY    19  10  68 NW9G17    30.21R WCI   8
BEAVER ISLAND  CLOUDY    20  11  66 NW14G24   30.28R WCI   7
BELLAIRE       LGT SNOW  21  16  79 NW3G16    30.27R
CADILLAC       CLOUDY    18  11  75 NW12      30.22R WCI   5
CHARLEVOIX     FLURRIES  20  11  68 NW16G25   30.29R WCI   6
FRANKFORT      FLURRIES  21  12  70 NW13      30.31R WCI   8
GAYLORD        CLOUDY    16  10  77 NW7       30.19R WCI   6
GRAYLING       LGT SNOW  19  15  85 NW12G17   30.21R WCI   6
HARBOR SPRINGS MOCLDY    19   7  59 W7G17     30.25R WCI  10
HOUGHTON LAKE  CLOUDY    20  13  74 NW13      30.22R WCI   7
MANISTEE       CLOUDY    21   9  58 N10       30.31R WCI  10
OSCODA         CLEAR     23  12  64 NW10      30.20R WCI  12
PELLSTON       LGT SNOW  19  12  74 NW15      30.25R WCI   5
ROGERS CITY    FLURRIES  19  14  80 W9G18     30.22S WCI   8
TRAVERSE CITY  FLURRIES  21   9  59 NW12      30.28R WCI   9
$$
MIZ007>008-015-272300-
EASTERN UPPER MICHIGAN

CITY           SKY/WX    TMP DP  RH WIND       PRES   REMARKS
MACKINAC ISLAN MOCLDY    18   8  66 NW15G23   30.23R WCI   3
NEWBERRY       MOCLDY    14   7  75 W13       30.25R WCI  -1
S. S. MARIE    LGT SNOW  16   9  74 N8        30.23R WCI   5
MUNISING         N/A     19  12  74 NW13G21   30.30R WCI   6
$$
MIZ004>006-011>014-085-272300-
CENTRAL UPPER MICHIGAN

CITY           SKY/WX    TMP DP  RH WIND       PRES   REMARKS
MANISTIQUE     CLEAR     15  10  80 NW9       30.29R WCI   3
ESCANABA       CLEAR     16   0  48 NW7       30.33S WCI   6
MENOMINEE      CLEAR     16   1  53 N6        30.34S WCI   7
SAWYER-GWINN   CLEAR     10   0  61 NW7       30.29S WCI   0
$$
MIZ001>003-009>011-084-272300-
WESTERN UPPER MICHIGAN

CITY           SKY/WX    TMP DP  RH WIND       PRES   REMARKS
IRON MOUNTAIN  CLEAR     12  -1  56 NW10      30.30S WCI  -1
HOUGHTON       LGT SNOW   9   3  77 W7        30.31S VSB 1   WCI  -2
COPPER HARBOR    N/A     16   9  74 N15       30.33S WCI   1
IRONWOOD       CLOUDY     9   3  78 W9        30.31F WCI  -5
$$

ABBREVIATIONS USED IN REMARKS
   TC - TEMPERATURE IN CELSIUS
  WCI - WIND CHILL INDEX
   HX - HEAT INDEX
  VSB - VISIBILITY




USA.gov is the U.S. government's official web portal to all federal, state and local government web resources and services.